STARLINK-1067, 44771

Orbit data source: Space-Track

STARLINK-1067, 44771 is a payload satellite owned by SpaceX/Seattle (US) in LEO that was launched on Mon, 11 Nov 2019 UTC via an FALCON 9 launch vehicle from the Air Force Eastern Test Range (AFETR). Payload-class satellites include a variety of spacecraft equipped with specific instruments for various scientific and technological missions. These include communications satellites like Starlink; space stations such as the ISS; scientific satellites like the Hubble; Earth observation satellites from companies like Planet Labs, Umbra, and HawkEye 360; GPS; miniature CubeSats for education and research; and military/defense satellites.

Loading next visibility...
Identifier
44771, 2019-074BL
Orbit
LEO
Country
Flag of USUS
Related business
Manufacturer
SpaceX/Seattle
Mission
Partially operational Commercial Communications
Bus & Motor
STARLINK, Unknown motor
Mass
260 kg wet, ~248 kg dry
Launch date (UTC)
2019-11-11 (6 years ago)
Launch vehicle
FALCON 9
Launch site
Air Force Eastern Test Range (AFETR)
Object type
Payload
Rocket body
Debris
Shape & HBR
Box + 1 Pan, 10.1 m
Radar Cross Section
13.562 m², Large (>1 m²)

Expand to show TLE details & history
Last TLE update: 7 hours ago

TLE from 7 hours ago
0 STARLINK-1067
1 44771U 19074BL  26123.66670139  .00133699  00000-0  11085-2 0  9994
2 44771  53.0449 295.1962 0004599 228.6023  15.4235 15.69306999  5972
Epoch: 2026-05-03T16:00Z
TLE epoch observation values (Epoch: 2026-05-03T16:00:03.000Z)
Latitude
-46.11895°
Longitude
64.68706°
Altitude
373.553 km
Speed
7.687 km/s
True Right ascension
11h 05m 03s
True Declination
-45° 56' 14"
Sunlit
Object was in full shadow at epoch
Visualization orbit readout
Latitude
Unknown
Longitude
Unknown
Altitude
Unknown
Speed
Unknown
Apparent Right ascension
Unknown
Apparent Declination
Unknown
Sunlit
N/A
Visualization observer readout
Local Sidereal Time
06:41:35
Azimuth
Unknown
Elevation
Unknown
Doppler factor
Unknown
Orbital elements
Apogee altitude
364.259 km
Perigee altitude
358.06 km
Semi-major axis
6,739.297 km
Eccentricity
0.00046
Inclination
53.0449°
RAAN
295.1962°
Arg. of periapsis
228.6023°
True anomaly
15.43752°
Mean anomaly
15.4235°
Eccentric anomaly
15.43051°
Mean motion
3.92303 °/min
Orbital period
91.77 mins
BSTAR
0.0011085
Loading maneuver chart data...
Computing Atmospheric mass density...

Documentation

Showing up to 5 results
|